GFSWCAN_sfc_30mbdewp_336.txt.gz
Dewpoint
42 43 42 41 42 43 44 46 44 47 48 49 49 49 49 49 50 49 46 50 48 47 47 48 48 48 48 45 41 40 40 35 34 30 28 30 29 31 30 31 31 25 19 18 25 21 14 37 38 25 27 42 44 40
42 42 43 41 42 43 43 44 45 46 46 47 48 48 49 51 50 50 45 50 49 46 46 48 48 47 48 50 46 44 39 37 37 34 34 36 31 32 30 28 36 31 32 28 26 24 39 43 40 40 40 43 45 44
43 43 42 43 43 42 42 44 45 46 47 47 48 48 48 49 51 51 48 48 47 46 47 47 46 48 50 49 49 45 40 38 35 38 37 40 35 36 30 29 35 41 42 38 36 37 39 41 41 39 43 43 47 50
43 43 42 42 42 42 44 44 44 45 46 47 48 48 48 49 50 51 49 48 47 45 42 43 48 47 48 50 52 50 44 43 42 41 37 35 35 40 36 37 35 40 42 39 38 38 36 36 40 43 46 47 48 50
45 45 46 42 42 43 44 46 46 46 46 47 47 48 48 48 50 51 51 50 48 46 42 43 47 48 48 49 48 50 48 45 42 35 33 32 39 38 42 40 39 43 40 36 34 40 38 36 42 46 46 46 48 48
45 45 46 46 44 44 45 46 46 47 48 48 48 48 49 48 49 48 45 49 49 48 44 44 48 48 48 47 49 49 48 44 43 39 36 40 42 37 37 37 40 43 45 45 40 43 43 43 43 44 46 47 49 50
45 45 45 45 46 46 47 47 47 48 49 49 49 49 49 49 49 45 45 49 49 49 46 45 44 48 48 36 40 40 40 37 36 36 36 38 40 39 37 34 39 41 43 44 45 44 41 42 41 44 46 48 48 48
46 46 45 46 46 46 47 48 48 49 49 48 48 49 51 50 49 47 49 50 51 48 46 45 45 46 43 36 34 38 35 36 36 34 39 35 39 39 34 35 39 43 44 43 42 43 43 43 44 44 46 47 46 46
46 46 46 46 47 47 47 48 49 49 48 48 49 51 49 47 46 48 53 54 50 46 46 47 46 42 48 43 40 37 35 32 37 32 33 36 34 32 38 47 45 45 45 42 42 42 43 42 43 44 45 46 44 47
46 46 46 47 47 47 48 48 49 49 48 45 49 48 47 49 52 54 52 48 45 47 48 43 45 41 44 43 39 37 36 31 31 38 41 33 31 40 48 50 51 52 52 51 43 40 41 42 42 44 45 47 47 48
46 46 46 46 47 47 48 49 49 48 41 40 40 44 46 48 53 51 46 45 45 45 46 44 44 40 45 36 40 43 37 38 30 36 37 33 34 44 50 50 52 53 53 51 48 45 43 42 43 46 47 47 47 47
46 46 47 47 46 47 48 48 49 45 43 40 42 45 46 48 44 45 43 45 44 42 46 45 44 44 43 47 43 44 38 39 34 44 39 38 41 50 49 49 51 53 53 49 47 47 46 46 47 47 46 46 47 48
47 46 46 46 46 47 48 49 48 47 47 47 45 45 45 44 38 39 37 41 42 45 47 48 45 46 42 44 43 42 38 38 45 37 35 37 47 49 49 48 48 51 52 50 47 47 46 47 47 46 46 47 48 48
46 45 45 45 46 48 48 47 47 47 44 43 42 40 38 37 40 43 43 43 45 47 47 49 48 46 42 40 39 37 44 43 37 34 33 40 46 48 49 51 51 49 51 51 52 48 47 47 47 48 47 48 47 46
44 43 44 45 47 47 46 47 48 46 42 41 44 38 39 42 45 45 46 46 45 49 49 47 48 48 40 38 41 43 41 37 38 36 40 45 48 48 50 51 53 52 53 52 53 52 48 47 46 46 47 48 48 50
43 43 44 46 47 46 47 47 45 43 43 42 42 41 42 41 43 44 43 43 45 48 49 49 46 42 42 40 39 37 37 35 36 42 46 48 48 50 51 52 53 54 54 53 52 51 49 48 48 47 48 48 50 51
42 41 44 45 45 47 47 45 44 42 40 43 42 43 42 40 39 42 43 43 48 47 43 46 41 40 45 40 38 43 38 41 46 48 49 50 48 49 51 52 53 55 54 54 54 52 50 50 50 48 47 47 48 52
40 42 44 44 46 45 43 44 42 40 38 41 41 39 40 41 40 40 41 46 48 47 48 42 47 41 40 38 40 44 47 49 49 49 49 50 50 51 53 53 53 53 53 54 54 52 50 52 50 48 50 52 52 53
41 42 44 45 47 45 40 42 44 38 39 41 41 41 40 39 40 39 39 46 50 51 49 47 43 41 41 44 45 47 48 49 48 49 49 50 51 51 51 52 53 53 53 53 51 51 52 50 51 52 52 52 52 53
44 45 46 47 47 41 39 40 44 42 38 38 39 38 38 37 38 38 38 46 49 47 43 43 43 44 44 46 49 49 50 52 51 50 50 52 51 51 51 51 52 53 52 50 50 51 52 52 53 53 53 52 52 52
43 44 47 46 45 43 40 38 38 40 41 39 39 39 37 38 37 37 37 45 44 42 39 44 44 44 47 50 52 52 51 53 51 51 50 51 52 53 52 54 54 50 49 50 50 51 52 52 53 52 52 51 51 50
43 45 43 44 41 41 41 42 37 39 38 36 36 36 35 33 35 36 40 39 39 38 41 39 39 41 44 48 50 53 52 53 53 52 51 50 48 49 50 50 50 48 49 49 51 51 52 51 49 49 48 48 49 48
43 44 41 41 40 38 37 41 38 36 35 35 36 34 35 35 37 40 35 37 37 40 39 39 39 42 45 49 52 53 53 53 50 48 49 50 50 50 50 50 48 48 48 52 53 51 50 47 48 48 48 48 47 47
44 41 34 33 36 30 34 34 38 37 36 34 34 33 33 35 44 42 39 41 42 49 49 49 50 48 50 50 50 51 51 50 49 50 51 50 47 47 49 49 49 48 52 52 50 48 47 47 48 48 47 47 47 47
38 36 34 31 34 35 35 35 34 34 34 35 34 34 34 43 39 39 39 43 47 48 50 50 50 50 48 48 50 51 51 51 50 48 50 50 49 48 49 52 51 53 52 50 48 47 47 47 48 47 47 47 46 45
29 31 33 33 33 32 32 34 34 33 34 36 35 36 43 41 38 38 45 49 50 50 50 50 50 49 49 50 48 48 48 51 51 48 49 50 49 48 47 50 52 54 53 50 48 47 46 46 46 46 47 47 46 46
28 29 33 36 35 35 35 36 38 38 36 36 37 39 39 37 40 47 51 52 50 49 49 50 50 49 50 51 52 53 54 53 51 49 50 51 51 51 50 49 51 53 53 50 48 47 45 45 46 46 47 47 47 47
32 32 30 33 35 35 33 34 34 36 38 40 40 38 39 41 43 48 51 51 51 49 48 48 49 52 52 53 54 54 54 51 54 50 49 49 50 50 51 52 53 53 51 49 48 48 47 46 46 47 48 48 48 48
32 34 34 32 34 36 34 33 33 35 40 38 34 37 42 46 48 49 49 50 51 49 47 51 53 54 54 53 53 54 54 48 48 46 44 43 46 50 52 53 52 51 50 48 48 48 47 47 48 48 48 48 48 48
32 35 33 34 33 34 36 37 35 36 37 37 39 41 40 42 45 49 50 50 49 47 49 52 55 53 53 51 50 52 53 50 46 44 42 41 43 51 52 52 51 50 48 48 48 47 47 48 48 48 48 48 48 47
34 34 33 33 32 35 36 40 41 40 40 39 39 39 38 41 45 48 49 49 49 52 52 52 54 55 53 52 50 51 51 52 50 46 45 45 49 52 52 52 52 50 49 48 48 48 47 47 48 47 47 47 47 48
36 35 35 35 36 38 40 38 37 37 37 37 37 40 41 43 43 45 51 53 52 51 52 53 54 54 56 56 56 56 54 52 52 49 47 48 50 52 52 52 52 51 50 49 49 48 48 49 49 49 50 50 50 51
43 41 39 39 37 37 38 38 38 38 39 38 37 39 42 42 41 45 50 54 54 54 53 52 54 56 55 56 56 57 55 51 52 50 48 49 50 51 52 52 52 52 51 50 50 50 50 50 50 51 51 52 52 52

GFSWCAN_sfc_30mbdewp_339.txt.gz
Dewpoint
43 43 43 42 42 43 44 43 44 46 47 47 47 49 48 49 51 49 45 48 47 44 45 45 46 44 46 47 45 46 41 39 37 32 31 32 33 35 33 34 32 29 25 24 27 23 20 39 39 28 35 39 40 42
43 44 42 42 42 43 43 43 44 45 46 46 47 48 48 49 49 51 44 48 50 44 45 48 47 47 47 48 49 48 43 43 40 37 38 38 34 36 36 30 39 32 32 30 30 29 42 45 43 44 42 43 47 45
44 44 45 45 43 43 44 44 45 45 46 46 46 46 47 48 50 50 49 46 45 43 42 44 44 46 48 47 48 47 45 44 38 41 40 41 40 38 32 32 41 44 44 41 40 41 41 41 43 43 46 47 48 49
44 45 45 45 46 44 43 45 46 46 46 47 47 47 48 48 48 50 49 48 46 45 41 42 47 46 49 49 49 48 47 46 46 44 40 39 39 42 38 39 38 42 45 43 41 41 42 42 46 48 49 52 52 54
45 45 45 45 46 46 46 46 46 46 47 47 48 48 49 49 48 49 49 48 46 42 41 42 44 46 48 50 50 49 48 49 48 44 38 36 41 41 44 42 40 44 43 39 37 43 43 43 46 49 49 50 53 54
46 46 45 46 46 46 46 46 47 47 48 48 48 49 49 49 49 47 43 49 48 47 43 42 47 48 48 48 47 48 49 51 50 47 42 44 44 41 40 40 44 45 46 46 45 46 46 46 46 48 50 51 52 53
46 46 46 46 46 46 47 47 47 48 49 50 49 49 49 49 49 43 43 48 50 48 44 43 46 48 49 45 49 49 48 46 44 45 43 42 43 42 39 35 42 45 46 47 46 47 45 44 43 47 48 49 50 51
46 46 46 47 46 46 46 47 48 49 49 49 48 49 51 51 49 45 49 49 50 47 47 43 44 48 45 37 37 40 41 41 40 38 41 40 43 42 36 41 45 47 48 46 46 45 45 47 48 47 49 49 48 48
46 46 46 47 46 46 47 47 48 49 49 48 47 51 49 46 45 48 54 53 51 48 44 46 46 42 50 44 42 39 39 35 39 37 37 39 38 35 42 49 51 51 50 49 48 45 45 44 46 48 48 48 47 50
46 46 46 46 46 46 47 47 48 49 48 44 47 48 48 49 50 51 51 47 46 46 47 44 45 43 47 47 42 40 38 36 34 41 42 36 35 43 49 52 53 54 54 54 49 44 44 44 46 47 49 50 50 50
46 46 46 46 47 46 47 47 48 49 43 39 38 43 46 47 51 50 47 46 46 44 46 46 44 42 48 40 43 45 38 38 32 41 40 36 35 46 51 51 53 54 54 53 53 52 49 46 46 48 49 50 51 50
46 46 47 46 46 46 46 47 49 46 42 41 42 45 46 48 45 42 43 46 45 41 47 46 47 46 48 50 46 47 42 41 37 44 42 38 44 52 51 50 51 53 52 50 50 50 48 48 48 50 50 50 50 51
46 47 46 44 45 45 46 48 48 48 47 46 44 43 45 43 37 38 38 40 42 46 48 49 47 48 46 48 46 45 41 40 46 40 38 40 51 51 51 51 52 52 51 50 49 50 50 50 50 50 50 51 52 53
47 46 45 44 44 46 48 47 47 48 45 42 41 37 40 37 39 42 41 43 44 47 48 49 48 48 45 43 44 40 46 45 38 36 36 44 50 51 52 53 54 53 53 52 51 49 49 50 50 50 50 51 50 50
46 46 44 44 46 47 46 47 48 47 42 39 42 36 39 41 43 44 46 44 45 47 49 49 49 49 45 41 44 44 41 38 39 37 43 49 52 52 52 53 54 55 55 55 55 53 50 50 49 49 49 49 51 53
46 43 44 47 46 45 47 47 46 44 42 40 40 41 43 43 43 43 44 44 46 49 51 50 48 44 44 42 41 38 36 34 40 46 49 52 52 52 53 53 55 56 55 55 54 53 51 51 50 50 50 51 52 53
44 41 43 45 44 45 46 45 45 41 38 39 40 43 43 43 41 41 43 45 48 49 46 47 41 41 46 41 40 43 40 44 47 51 52 53 52 53 54 54 55 55 54 55 55 53 52 53 52 51 51 51 50 53
41 41 43 43 44 45 44 44 43 40 35 37 40 40 41 42 42 42 42 45 46 48 49 45 49 42 39 37 41 47 49 51 52 52 52 53 53 53 54 55 55 55 54 54 54 51 51 52 52 52 53 54 54 55
43 42 43 44 46 44 40 42 44 39 38 40 41 42 41 41 41 41 41 42 48 51 51 49 45 43 44 47 48 50 50 51 51 53 53 53 54 52 52 54 55 53 55 56 54 53 53 53 53 53 54 53 53 53
42 43 44 47 46 42 38 40 45 43 39 39 41 39 39 39 40 40 40 44 50 49 45 44 45 46 46 49 51 52 53 54 52 52 52 53 53 53 53 54 54 55 54 53 52 52 53 53 54 54 53 53 54 54
42 44 47 47 45 43 40 38 38 39 40 40 40 40 38 40 39 39 39 46 45 42 40 44 45 46 49 51 54 56 55 55 54 53 52 53 55 54 54 56 55 51 50 50 50 52 53 53 54 54 53 53 52 52
42 44 44 45 42 42 41 41 37 39 38 37 37 37 36 36 36 39 43 41 41 39 42 40 40 42 44 49 53 55 55 55 54 53 52 50 50 53 53 53 51 51 50 51 52 52 53 52 50 50 49 49 49 49
43 43 41 41 40 38 37 42 40 38 35 36 37 36 36 37 39 42 38 39 40 43 44 42 42 44 45 50 54 55 55 55 52 50 50 51 53 53 51 51 50 50 50 53 54 53 50 48 48 48 48 48 48 49
44 41 37 36 37 31 34 35 38 38 37 35 35 34 35 36 45 43 40 42 44 50 51 52 52 48 51 51 52 53 53 51 49 51 53 51 48 50 50 50 50 49 52 53 51 49 49 49 48 48 48 48 48 46
38 36 35 31 34 36 34 35 36 35 34 36 35 35 36 44 40 40 40 45 50 51 53 51 52 51 49 48 50 52 54 53 51 50 51 52 50 49 51 51 53 53 52 50 48 48 48 48 48 48 47 47 45 44
30 30 33 33 33 32 32 34 35 34 34 36 36 36 43 41 39 39 44 48 50 51 52 53 53 52 52 51 51 50 51 52 52 48 50 52 51 49 49 51 52 53 53 50 48 47 47 46 47 46 46 45 44 43
27 29 33 36 35 35 35 36 36 37 37 36 37 39 40 37 39 47 50 51 50 51 49 50 50 49 52 53 54 53 54 54 53 52 52 53 52 52 51 50 52 54 52 49 47 47 46 45 45 46 46 46 47 46
31 32 29 32 34 35 34 34 34 36 39 41 41 39 39 40 43 48 50 52 52 52 51 50 50 51 53 53 56 57 55 55 54 51 50 50 51 51 52 54 54 51 50 48 47 47 46 45 44 44 45 45 47 48
32 33 33 31 34 35 34 33 33 35 40 40 37 38 43 45 46 47 49 51 52 50 49 50 55 55 55 55 56 56 55 51 51 50 49 47 48 51 53 53 52 50 49 48 47 47 47 47 48 49 49 48 48 47
32 34 33 33 32 32 34 37 36 37 38 39 40 41 42 44 43 46 48 49 49 48 50 53 55 55 55 55 53 52 54 52 49 48 47 45 46 51 52 52 50 49 48 48 47 47 47 48 48 49 48 49 48 48
34 34 32 34 35 35 35 38 40 41 41 40 41 40 39 41 46 47 49 50 50 51 54 53 54 56 55 55 54 52 51 53 51 48 46 46 51 52 52 51 50 49 48 48 48 47 47 48 48 48 48 48 48 48
35 34 33 34 34 37 40 40 38 38 38 38 36 40 40 41 40 44 50 53 54 53 53 53 55 55 56 56 57 56 55 53 52 50 48 48 51 52 53 52 49 48 49 48 48 48 49 48 48 48 48 49 50 50
40 39 37 37 37 37 38 38 38 39 40 39 39 40 38 37 36 43 53 55 55 55 55 55 55 56 57 56 56 56 57 55 55 52 48 50 52 53 53 52 51 49 49 49 49 49 50 50 51 51 51 51 52 52

GFSWCAN_sfc_30mbdewp_342.txt.gz
Dewpoint
45 44 44 43 44 44 44 43 45 45 46 45 46 47 48 49 50 48 44 44 43 41 37 37 36 36 39 40 40 43 44 41 38 36 31 25 20 24 22 24 25 24 25 22 22 22 19 33 31 23 35 38 40 39
45 44 45 46 46 45 44 45 45 46 46 46 46 46 47 48 49 50 43 44 50 45 41 40 40 43 43 44 44 48 47 46 42 39 38 36 31 33 26 27 39 27 27 23 24 24 42 43 43 44 42 41 42 46
46 45 45 46 46 46 46 46 46 46 46 47 47 47 47 48 48 49 48 44 44 42 37 36 36 39 41 42 42 45 50 47 43 43 43 40 41 38 29 26 36 44 44 36 37 41 41 41 43 43 44 45 47 47
46 46 45 45 46 46 46 46 47 47 47 47 48 48 48 48 49 49 48 45 45 41 37 29 40 42 43 46 45 45 51 50 44 44 45 42 38 42 34 38 33 41 45 43 41 42 44 46 47 47 49 49 51 52
47 46 46 46 46 47 46 46 47 47 47 47 48 48 48 49 49 48 47 47 47 40 32 34 35 42 46 43 47 46 50 49 45 45 44 39 39 41 42 39 36 43 43 35 38 44 47 45 48 47 48 50 52 55
46 46 46 46 46 47 46 47 47 47 47 48 48 49 49 50 49 48 39 48 47 47 42 39 43 45 49 46 47 51 52 47 47 46 44 40 43 43 37 36 43 44 46 46 47 46 46 46 46 47 48 50 49 50
46 47 47 46 46 47 47 47 47 48 48 49 50 49 49 49 49 46 39 48 49 49 43 41 44 48 48 46 48 51 51 48 48 46 43 39 38 42 35 37 45 45 46 47 46 47 44 43 43 45 48 50 50 50
46 47 47 46 46 47 47 46 47 48 48 49 49 49 49 51 50 46 47 48 51 46 46 42 43 45 47 41 43 51 49 45 45 43 42 40 38 37 35 45 47 48 46 46 47 45 45 47 48 47 47 48 46 47
46 47 46 46 47 47 47 47 47 48 49 49 49 50 49 47 44 49 54 50 51 48 44 45 44 42 48 43 40 43 47 40 42 38 36 38 33 35 48 50 51 52 51 50 48 45 43 44 46 46 45 46 46 49
46 46 46 46 46 47 47 47 47 48 48 47 44 48 48 51 49 50 50 45 44 45 46 44 42 43 44 43 39 39 40 38 37 36 41 33 32 49 52 54 55 54 54 52 48 42 42 42 44 46 48 49 49 51
46 46 46 47 47 46 46 46 47 48 45 35 33 40 44 47 50 49 46 45 45 44 45 45 44 42 46 43 45 44 37 37 29 38 35 32 31 48 52 52 54 55 52 51 51 51 51 49 46 46 49 50 51 51
46 46 47 47 47 45 45 46 48 44 38 40 42 45 46 47 46 40 41 46 45 41 46 46 47 47 47 50 46 47 41 39 32 42 35 30 48 52 51 51 53 53 51 50 50 50 49 48 48 49 51 50 52 53
46 46 47 47 46 44 45 47 49 48 47 45 45 43 45 43 36 37 33 41 42 46 46 47 46 48 49 50 45 46 39 37 44 36 33 42 51 52 52 52 51 52 51 50 50 51 51 51 51 51 52 52 52 52
46 47 47 47 46 45 46 47 47 46 44 39 39 36 40 36 38 40 40 41 43 44 44 46 48 48 47 43 47 40 44 45 35 32 35 45 52 53 53 53 53 52 52 51 49 50 50 50 50 50 51 51 51 51
46 47 47 46 45 46 46 46 47 46 41 36 39 36 35 37 40 42 44 45 43 43 44 47 49 49 48 43 41 42 39 35 34 35 41 49 54 54 53 53 53 53 53 53 53 50 49 49 49 49 49 49 51 51
46 46 44 46 45 45 46 45 45 44 40 38 38 38 37 37 37 43 42 42 44 43 46 50 47 45 39 41 38 35 31 30 38 43 47 52 53 54 54 54 55 55 55 53 53 52 50 50 49 49 50 51 51 51
46 41 44 44 44 45 45 45 44 41 36 36 36 37 36 37 39 43 44 44 44 43 45 46 41 38 43 38 37 40 37 43 46 48 50 54 55 55 54 56 55 54 54 55 54 53 52 51 50 51 52 53 51 52
42 42 42 43 44 44 43 44 40 38 35 34 34 33 37 38 38 39 41 42 41 40 46 46 49 41 38 35 37 47 47 49 50 50 51 54 55 55 55 55 55 55 54 55 54 53 54 53 51 51 53 54 54 55
43 44 43 43 44 44 39 41 43 35 32 32 34 35 35 36 37 40 39 39 41 43 48 48 44 41 42 45 47 48 48 49 49 51 52 54 54 54 55 56 56 55 55 54 50 45 49 49 48 46 45 46 47 50
46 44 43 45 46 42 37 37 44 41 36 36 37 36 37 36 37 39 38 39 42 48 46 45 44 46 44 47 50 50 51 52 50 49 50 51 52 54 54 54 54 56 52 52 49 49 49 49 50 51 51 51 49 48
42 43 46 47 45 43 39 34 36 37 36 36 37 38 36 36 37 35 35 39 41 37 37 39 42 41 47 48 52 55 54 53 53 50 51 51 53 53 53 55 57 53 47 44 45 49 50 49 51 51 49 50 50 50
41 43 44 45 41 42 41 39 34 35 36 33 32 33 34 35 35 36 38 38 35 37 43 40 38 41 43 49 53 56 56 56 55 53 52 52 50 53 51 51 51 51 48 48 49 49 51 50 49 48 48 48 49 49
42 42 40 40 38 39 36 40 38 35 33 33 36 36 35 36 37 40 37 35 34 39 42 42 46 46 45 49 56 56 56 55 52 52 51 49 50 51 50 51 50 51 50 52 52 51 50 48 48 49 50 50 50 50
43 41 37 35 35 31 33 34 37 36 34 32 31 34 34 36 43 42 35 35 40 47 48 52 52 47 48 52 51 54 54 54 51 52 51 48 47 49 49 50 49 50 51 52 50 49 49 49 49 49 49 48 47 46
38 34 34 31 33 33 31 31 32 32 32 32 33 33 34 39 40 38 37 43 47 50 52 52 50 48 41 39 42 50 54 49 46 46 49 49 48 48 50 50 51 51 51 48 48 48 49 50 50 49 46 46 44 41
31 31 33 30 30 30 29 30 31 31 32 34 34 34 38 40 36 37 44 49 51 51 51 51 51 51 51 49 44 44 49 51 50 44 45 48 48 46 47 48 49 51 51 48 48 47 48 48 48 47 45 45 43 41
29 28 31 33 33 33 33 33 35 35 36 35 35 37 38 35 37 46 50 51 51 51 49 49 48 48 49 50 52 51 52 52 50 48 50 50 49 50 48 46 47 50 49 47 47 47 47 46 46 45 44 44 44 45
30 30 28 30 30 32 34 33 34 34 33 37 39 38 37 39 42 47 50 50 48 48 49 49 49 50 50 50 54 54 53 53 52 50 50 51 50 50 50 51 51 49 47 47 46 46 46 45 45 45 46 46 46 45
31 31 30 30 31 30 32 33 31 32 37 38 37 38 41 42 46 49 48 50 47 48 46 46 50 54 54 53 53 54 54 52 51 48 46 45 48 50 50 50 49 47 47 47 46 46 46 46 46 47 47 46 44 43
30 31 30 30 29 28 29 32 32 33 35 36 37 38 39 41 42 48 47 44 47 47 45 46 47 48 52 54 52 51 52 51 50 46 44 45 45 49 48 48 47 47 47 47 47 48 48 48 49 48 46 45 44 44
31 31 30 30 30 30 28 32 35 36 37 36 37 37 36 38 40 42 41 43 46 47 47 46 46 48 50 52 51 50 49 51 51 49 46 44 48 48 48 48 47 47 47 46 46 46 47 47 47 47 47 48 48 47
31 31 30 28 28 30 36 34 34 34 35 36 35 35 36 37 38 38 42 47 48 47 47 49 48 52 54 54 54 53 54 50 50 48 46 47 48 48 49 47 47 47 47 47 46 47 47 46 46 45 45 45 45 46
35 32 32 33 33 34 34 34 34 34 34 34 33 33 33 33 33 36 49 51 47 45 48 49 53 54 55 55 55 54 55 52 52 49 48 49 50 50 48 47 48 48 48 47 46 47 47 47 46 46 47 47 48 48

GFSWCAN_sfc_30mbdewp_345.txt.gz
Dewpoint
46 46 45 46 46 47 47 46 46 47 47 47 46 47 48 48 49 48 42 43 43 41 37 36 36 35 34 33 40 39 38 36 36 36 29 26 25 23 19 17 19 25 24 21 20 17 16 22 21 14 32 35 38 36
46 46 46 45 46 46 47 47 47 47 47 47 47 47 47 48 49 49 43 42 46 46 38 39 38 37 36 35 37 37 38 42 46 44 45 41 40 27 19 17 20 25 24 24 21 19 41 38 40 43 40 40 40 42
46 47 47 46 46 46 47 47 47 47 48 47 48 48 48 49 49 49 45 45 44 43 37 33 31 32 38 36 34 36 38 43 48 52 47 45 42 39 37 20 27 30 27 24 29 37 39 40 40 41 41 40 43 43
46 46 47 47 47 47 47 47 47 47 47 48 48 48 49 49 50 49 44 44 44 42 34 31 34 37 39 42 40 40 39 50 52 52 45 45 43 48 41 35 37 44 42 31 39 42 44 46 46 46 46 47 46 48
46 46 47 47 47 47 47 47 47 47 47 47 48 48 49 49 50 48 45 44 47 42 36 38 40 41 38 39 35 43 43 46 49 46 43 42 45 46 42 40 42 50 47 34 41 46 46 46 46 46 48 50 52 54
46 46 46 47 47 47 47 47 47 47 48 48 48 48 49 50 50 46 41 46 48 48 42 39 42 42 44 49 40 45 46 50 50 46 45 48 47 44 40 36 44 46 47 45 46 46 44 44 45 46 46 48 51 53
46 46 46 47 47 47 47 47 48 48 48 49 49 49 50 50 47 44 44 50 48 49 42 39 42 49 46 45 45 48 51 52 51 49 48 48 46 41 41 43 44 46 45 46 45 45 42 42 43 44 45 44 46 47
46 46 47 47 47 47 47 47 47 48 48 48 49 49 50 51 50 47 47 49 49 47 45 40 42 46 44 43 45 52 50 51 48 48 46 41 42 39 43 54 52 46 46 46 45 44 45 47 45 45 44 46 46 47
47 46 47 47 47 47 47 47 47 47 48 48 49 49 50 49 48 50 52 50 51 47 42 44 42 43 49 48 45 51 51 47 46 44 41 41 38 45 51 52 52 51 50 48 44 42 43 45 46 44 44 44 46 47
47 46 47 47 47 47 47 47 46 47 48 48 46 47 48 51 50 53 48 44 45 45 46 43 41 43 49 47 41 45 48 43 37 37 39 37 43 51 52 54 54 53 51 49 42 42 42 43 44 45 46 46 49 50
47 46 47 47 47 47 47 46 46 47 47 34 30 33 42 47 46 47 46 42 43 42 45 45 44 46 46 45 45 44 45 39 34 31 34 34 36 50 52 53 54 51 49 49 49 49 48 47 45 46 48 50 51 52
47 47 47 47 47 47 47 45 46 45 38 39 40 42 45 46 47 44 41 42 44 43 46 47 48 48 46 50 45 46 44 37 39 35 35 31 50 52 51 51 52 50 48 48 48 48 47 46 44 46 49 50 53 54
47 46 46 47 47 47 47 46 47 48 46 44 45 44 45 42 37 36 36 38 39 43 48 44 44 47 49 48 45 45 46 39 43 32 35 46 51 52 52 51 51 50 49 49 49 50 50 50 49 50 51 53 53 54
47 46 46 47 47 47 47 46 47 45 42 35 37 38 36 36 33 38 38 40 43 42 42 43 46 48 47 47 47 44 40 38 35 30 40 48 53 52 53 53 52 50 50 49 49 50 51 51 52 52 52 53 53 52
47 46 46 47 47 46 46 46 46 44 40 33 34 35 33 33 35 41 43 43 43 43 43 43 47 48 48 45 46 45 37 40 38 41 49 54 54 54 54 53 52 52 51 50 49 49 50 51 51 51 51 51 52 52
46 46 45 46 46 45 45 44 44 43 37 33 32 32 32 30 32 40 44 41 41 43 43 46 46 46 40 45 40 34 35 35 35 42 49 53 55 56 55 54 54 54 53 51 51 51 51 50 50 50 51 52 52 53
46 42 46 45 44 43 45 43 40 39 35 33 30 29 28 29 32 35 40 41 42 41 44 47 43 39 39 34 38 42 43 41 43 46 52 56 56 55 56 55 53 54 54 54 55 55 54 52 51 53 54 54 52 52
43 44 44 43 43 42 42 43 37 35 34 31 27 26 30 32 33 34 38 41 41 39 41 45 47 41 40 40 43 42 45 48 48 50 53 56 57 56 54 54 55 52 51 52 52 53 52 51 51 49 50 51 51 52
43 46 45 44 43 43 36 37 36 33 31 27 28 29 30 30 33 37 38 39 39 41 43 47 44 41 43 46 48 50 49 46 50 50 53 55 55 54 54 56 55 53 51 50 48 47 48 49 47 44 43 42 41 48
46 46 46 44 45 43 36 33 38 36 32 32 33 31 31 32 34 36 37 38 38 44 47 43 44 45 47 48 51 52 52 49 47 48 49 51 52 54 55 54 52 51 51 48 45 44 46 47 47 45 47 47 46 44
43 43 44 46 45 44 38 32 32 33 32 31 33 34 34 34 33 33 36 37 38 38 37 39 43 43 46 48 50 52 52 50 49 47 50 52 52 50 54 56 58 51 48 47 48 48 46 46 46 46 46 45 47 52
42 43 44 44 42 40 39 35 32 32 32 30 29 31 31 31 31 32 35 35 36 36 37 38 40 41 43 48 52 54 54 54 51 49 51 49 49 48 52 52 51 51 51 48 45 46 47 48 48 46 47 49 50 50
41 41 39 39 36 37 35 34 33 31 29 30 31 32 32 33 34 37 35 35 35 36 37 39 43 48 47 47 53 53 54 52 48 47 50 48 47 49 47 49 51 49 47 50 49 48 48 48 49 50 51 50 50 49
42 40 36 35 34 32 31 33 33 33 30 28 28 30 31 33 38 38 34 33 36 37 39 42 44 43 44 49 47 50 50 50 48 50 50 48 47 46 48 48 47 46 47 48 47 47 49 50 50 50 50 48 46 43
37 32 35 33 33 30 29 29 30 30 29 29 28 30 33 36 38 38 37 45 41 42 46 48 49 48 42 41 43 48 51 48 46 46 48 47 48 46 47 46 47 48 46 45 47 48 50 50 49 48 47 47 44 43
32 32 33 29 28 28 28 27 28 28 27 29 29 31 33 34 34 36 43 47 49 49 48 48 46 46 46 46 43 50 49 46 46 43 45 44 45 51 52 47 47 48 47 47 47 48 49 49 48 47 42 38 39 40
30 28 30 31 30 29 29 29 31 30 30 29 30 30 35 34 36 47 52 52 52 52 49 48 46 47 45 49 46 47 47 47 46 47 46 45 47 47 47 44 44 47 46 46 47 48 48 48 46 44 41 39 40 42
30 29 27 30 29 29 30 31 30 30 30 30 32 35 35 39 42 48 51 50 52 48 47 47 46 46 45 47 48 49 49 47 47 45 45 45 47 47 48 48 47 46 46 46 46 46 46 46 45 45 44 42 41 41
31 30 29 28 29 28 28 30 30 29 30 34 35 38 41 42 44 44 46 49 47 44 44 46 49 48 50 49 49 50 49 47 46 46 44 42 44 47 48 46 46 46 45 46 45 46 46 46 45 46 46 45 43 42
29 29 29 29 28 28 28 28 29 30 32 34 37 38 39 39 41 45 44 44 44 43 44 45 47 47 50 50 48 48 48 49 48 47 43 45 45 47 46 46 45 45 45 45 46 47 47 47 47 46 45 43 42 41
29 28 28 28 27 28 27 28 29 32 34 34 35 35 35 36 38 41 43 42 42 42 42 42 43 44 46 48 50 48 47 46 46 48 49 49 46 46 46 46 45 45 45 45 45 45 46 46 45 46 46 45 47 45
29 29 28 28 28 28 30 28 27 30 32 33 33 34 35 35 37 40 40 41 40 42 45 44 43 45 49 50 49 52 52 48 48 47 46 44 45 47 47 45 45 45 45 44 45 45 46 45 44 44 45 44 43 43
33 30 30 29 29 30 30 31 32 32 32 32 33 33 33 33 34 37 43 43 43 42 43 44 47 49 52 52 51 51 49 48 48 47 47 47 47 47 45 44 45 45 44 43 43 44 45 44 43 43 44 45 45 45